Regional Weather Roundup
Issued by NWS

Home | Current Version | Previous Version | Graphics & Text | Print | Product List | Glossary On
Versions: 1 2 3 4 5 6 7 8 9 10 11 12 13 14 15 16 17 18 19 20 21 22 23 24 25 26 27 28 29 30 31 32 33 34 35 36 37 38 39 40 41 42 43 44 45 46 47 48 49 50
832
ASUS43 KFSD 300902
RWRSD

WEATHER ROUNDUP FOR SOUTH DAKOTA
NATIONAL WEATHER SERVICE SIOUX FALLS SD
400 AM CDT SUN APR 30 2017

NOTE: "FAIR" INDICATES FEW OR NO CLOUDS BELOW 12,000 FEET WITH NO
SIGNIFICANT WEATHER AND/OR OBSTRUCTIONS TO VISIBILITY.


SDZ001>005-009-010-012>017-301000-
NORTHWEST AND NORTH CENTRAL SOUTH DAKOTA

CITY           SKY/WX    TMP DP  RH WIND       PRES   REMARKS
BUFFALO          N/A     37  22  54 S7        30.04F
FAITH            N/A     33  23  66 S7        30.10F WCI  27
MOBRIDGE       CLEAR     30  22  72 CALM      30.09F
$$

SDZ012>016-024>037-041>051-057-063-072>074-301000-
SOUTHWEST AND SOUTH CENTRAL SOUTH DAKOTA

CITY           SKY/WX    TMP DP  RH WIND       PRES   REMARKS
RAPID CTY ARPT CLEAR     32  22  66 NW9       30.09F WCI  24
PIERRE         MOCLDY    32  23  69 N7        30.09F WCI  26
CUSTER         CLEAR     25  16  68 NW5       30.07F WCI  19
ELLSWORTH AFB  CLEAR     29  21  73 NW9       30.09F WCI  21
PHILIP         CLEAR     26  23  88 W6        30.09F WCI  19
PINE RIDGE     CLEAR     24  21  88 CALM      30.07F
SPEARFISH      FAIR      30  19  64 SW3       30.11F
WINNER         FAIR      37  27  67 N8        30.06F
$$

SDZ004>011-016>023-039-040-301000-
NORTHEAST SOUTH DAKOTA

CITY           SKY/WX    TMP DP  RH WIND       PRES   REMARKS
ABERDEEN       PTCLDY    34  26  72 N8        30.12F WCI  27
WATERTOWN      CLOUDY    37  22  54 NE9       30.07F
BROOKINGS      CLOUDY    42  24  49 NE8       30.06F
SISSETON         N/A     39  31  72 N8        30.12F
$$

SDZ017-020-022-023-036>040-048>070-301000-
SOUTHEAST SOUTH DAKOTA

CITY           SKY/WX    TMP DP  RH WIND       PRES   REMARKS
SIOUX FALLS    CLOUDY    44  29  55 NE12      30.02F
HURON          CLOUDY    41  28  60 N7        30.08F
CHAMBERLAIN    CLOUDY    42  31  63 NW7       30.07S
MITCHELL       CLOUDY    42  29  59 N8        30.06S
YANKTON        CLOUDY    45  27  49 NE10      30.01R
$$

ABBREVIATIONS USED IN REMARKS
   TC - TEMPERATURE IN CELSIUS
  WCI - WIND CHILL INDEX
   HX - HEAT INDEX
  VSB - VISIBILITY





USA.gov is the U.S. government's official web portal to all federal, state and local government web resources and services.